Simultaneous Nadir Overpasses (SNOs) Predictions

Prediction of SNOs between GOES-16 and METOP-B Satellite Orbit:

Table of predicted SNOs for the next 14.0 days since TLE Epoch: 4/27/2024
Index Date Time (GOES-16) GOES-16 Lat,Lon METOP-B Lat,Lon Distance(km) Time Diff (sec)
1 04/27/2024 14:23:26 0.05, -75.22 0.07, -75.30 9.89 80
2 04/30/2024 02:21:44 -0.04, -75.20 0.04, -74.91 33.56 80
3 05/01/2024 14:40:33 0.03, -75.23 0.97, -79.48 484.05 80
4 05/02/2024 14:22:32 0.03, -75.23 -0.11, -74.48 85.86 80
5 05/04/2024 02:41:30 -0.03, -75.23 -0.89, -79.08 438.51 80
6 05/05/2024 02:18:09 -0.03, -75.24 0.21, -74.08 131.89 80
7 05/06/2024 14:36:58 0.03, -75.28 0.77, -78.65 384.18 80
8 05/07/2024 14:18:57 0.03, -75.29 -0.33, -73.65 186.58 80
9 05/09/2024 02:37:54 -0.02, -75.30 -0.70, -78.25 336.72 80
10 05/10/2024 02:14:32 -0.02, -75.31 0.41, -73.25 234.16 80
